GW4984 Weather Reports


Display with metric or nautical units.
time (UTC)temp
F
wind
direction
speed
MPH
gust
MPH
rain 1hr
in
rain 24hr
in
rain mn
in
humidity
%
barometer
mb
20260505230711 53 87 2.0 3.0 0.00 0.00 0.00 70 1010.7
20260505230208 53 94 2.0 3.0 0.00 0.00 0.00 70 1010.2
20260505225704 53 33 5.0 7.0 0.00 0.00 0.00 69 1010.3
20260505225201 53 85 1.0 2.0 0.00 0.00 0.00 70 1010.2
20260505224656 53 58 4.0 6.0 0.00 0.00 0.00 70 1010.0
20260505224155 53 122 4.0 4.0 0.00 0.00 0.00 70 1010.0
20260505223652 53 34 4.0 8.0 0.00 0.00 0.00 70 1009.8
20260505223147 53 7 7.0 11.0 0.00 0.00 0.00 69 1010.0
20260505222644 53 62 4.0 10.0 0.00 0.00 0.00 69 1009.9
20260505222140 54 352 8.0 10.0 0.00 0.00 0.00 69 1009.8
20260505221637 54 100 3.0 6.0 0.00 0.00 0.00 68 1009.3
20260505221134 55 29 1.0 1.0 0.00 0.00 0.00 68 1009.1
20260505220632 54 8 4.0 6.0 0.00 0.00 0.00 67 1009.3
20260505220129 54 54 4.0 6.0 0.00 0.00 0.00 68 1009.7
20260505215627 54 33 3.0 4.0 0.00 0.00 0.00 68 1009.8
20260505215125 54 6 4.0 6.0 0.00 0.00 0.00 69 1009.7
20260505214622 54 114 4.0 7.0 0.00 0.00 0.00 69 1009.5
20260505214119 54 45 8.0 14.0 0.00 0.00 0.00 69 1009.4
20260505213617 54 129 5.0 7.0 0.00 0.00 0.00 70 1009.5
20260505213113 54 16 6.0 9.0 0.00 0.00 0.00 70 1009.5
20260505212609 54 288 3.0 4.0 0.00 0.00 0.00 70 1009.5
20260505212107 54 35 6.0 10.0 0.00 0.00 0.00 70 1009.4
20260505211604 55 79 4.0 4.0 0.00 0.00 0.00 71 1009.5
20260505211101 54 136 9.0 13.0 0.00 0.00 0.00 71 1009.2
20260505210557 54 22 4.0 8.0 0.00 0.00 0.00 71 1009.3
20260505210055 54 147 4.0 8.0 0.00 0.00 0.00 71 1009.1
20260505205552 54 43 3.0 4.0 0.00 0.00 0.00 72 1009.1
20260505205050 54 72 5.0 8.0 0.00 0.00 0.00 71 1009.1
20260505204547 54 71 2.0 4.0 0.00 0.00 0.00 72 1009.4
20260505204044 54 79 11.0 16.0 0.00 0.00 0.00 73 1009.5
20260505203540 54 47 6.0 8.0 0.00 0.00 0.00 73 1009.4
20260505203038 55 353 2.0 4.0 0.00 0.00 0.00 72 1009.4
20260505202533 55 93 5.0 8.0 0.00 0.00 0.00 73 1009.1
20260505202029 55 100 3.0 7.0 0.00 0.00 0.00 73 1009.2
20260505201527 54 79 4.0 6.0 0.00 0.00 0.00 74 1009.0
20260505201024 55 49 2.0 4.0 0.00 0.00 0.00 74 1009.0
20260505200522 55 11 3.0 3.0 0.00 0.00 0.00 74 1009.0
20260505200019 54 28 5.0 7.0 0.00 0.00 0.00 75 1009.1
20260505195515 54 64 5.0 7.0 0.00 0.00 0.00 76 1009.1
20260505195012 54 96 6.0 10.0 0.00 0.00 0.00 76 1009.0
20260505194510 55 38 7.0 10.0 0.00 0.00 0.00 75 1009.0
20260505194010 55 26 4.0 7.0 0.00 0.00 0.00 75 1009.4
20260505193508 55 68 9.0 11.0 0.00 0.00 0.00 75 1009.1
20260505193005 55 58 1.0 2.0 0.00 0.00 0.00 75 1009.1
20260505192504 55 55 2.0 4.0 0.00 0.00 0.00 75 1008.9
20260505192001 55 23 4.0 7.0 0.00 0.00 0.00 75 1008.6
20260505191459 55 59 4.0 6.0 0.00 0.00 0.00 75 1008.5
20260505190956 55 138 6.0 9.0 0.00 0.00 0.00 75 1008.6
20260505190450 55 62 4.0 9.0 0.00 0.00 0.00 75 1008.7
20260505185946 56 60 3.0 6.0 0.00 0.00 0.00 76 1008.5
20260505185444 55 9 2.0 3.0 0.00 0.00 0.00 77 1008.6
20260505184940 55 158 6.0 8.0 0.00 0.00 0.00 78 1008.4
20260505184437 55 145 3.0 8.0 0.00 0.00 0.00 78 1008.4
20260505183933 55 59 6.0 8.0 0.00 0.00 0.00 78 1008.4
20260505183430 55 25 5.0 7.0 0.00 0.00 0.00 79 1008.4
20260505182927 55 55 8.0 14.0 0.00 0.00 0.00 79 1008.3
20260505182424 55 17 4.0 6.0 0.00 0.00 0.00 79 1008.3
20260505181920 55 141 6.0 7.0 0.00 0.00 0.00 80 1008.2
20260505181418 55 25 6.0 8.0 0.00 0.00 0.00 80 1008.6
20260505180914 55 68 4.0 7.0 0.00 0.00 0.00 81 1008.8
20260505180411 55 41 7.0 10.0 0.00 0.00 0.00 81 1008.6
20260505175907 55 35 2.0 2.0 0.00 0.00 0.00 81 1008.4
20260505175403 55 5 1.0 1.0 0.00 0.00 0.00 82 1008.0
20260505174900 55 19 2.0 3.0 0.00 0.00 0.00 82 1008.1
20260505174358 55 52 4.0 7.0 0.00 0.00 0.00 82 1007.6
20260505173853 55 39 2.0 3.0 0.00 0.00 0.00 83 1007.8
20260505173350 55 48 3.0 4.0 0.00 0.00 0.00 83 1008.0
20260505172847 56 72 7.0 9.0 0.00 0.00 0.00 83 1007.6
20260505172345 56 67 4.0 8.0 0.00 0.00 0.00 83 1007.9
20260505171844 56 34 3.0 3.0 0.00 0.00 0.00 83 1007.8
20260505171341 56 48 1.0 1.0 0.00 0.00 0.00 83 1007.8
20260505170838 56 51 2.0 2.0 0.00 0.00 0.00 84 1007.9
20260505170335 56 61 4.0 6.0 0.00 0.00 0.00 83 1007.4
20260505165830 56 55 4.0 7.0 0.00 0.00 0.00 84 1007.3
20260505165326 56 114 3.0 4.0 0.00 0.00 0.00 84 1007.3
20260505164822 56 117 9.0 11.0 0.00 0.00 0.00 84 1007.2
20260505164319 56 46 4.0 6.0 0.00 0.00 0.00 84 1007.3
20260505163818 56 132 6.0 9.0 0.00 0.00 0.00 84 1007.2
20260505163316 56 48 4.0 6.0 0.00 0.00 0.00 85 1006.9
20260505162813 56 59 6.0 9.0 0.00 0.00 0.00 85 1006.6
20260505162309 57 31 9.0 13.0 0.00 0.00 0.00 84 1006.8
20260505161807 57 19 4.0 7.0 0.00 0.00 0.00 84 1007.1
20260505161304 57 67 4.0 4.0 0.00 0.00 0.00 84 1007.0
20260505160801 57 48 6.0 8.0 0.00 0.00 0.00 84 1007.0
20260505160259 57 69 4.0 8.0 0.00 0.00 0.00 84 1006.6
20260505153238 59 53 2.0 3.0 0.00 0.00 0.00 84 1006.3
20260505152736 59 81 2.0 2.0 0.00 0.00 0.00 84 1006.0
20260505152232 60 95 5.0 7.0 0.00 0.00 0.00 84 1005.8
20260505151731 60 27 5.0 6.0 0.00 0.00 0.00 84 1006.1
20260505151229 61 69 5.0 8.0 0.00 0.00 0.00 84 1006.0
20260505150726 62 18 4.0 8.0 0.00 0.00 0.00 82 1005.7
20260505150224 64 32 1.0 1.0 0.00 0.00 0.00 82 1005.8
20260505140154 68 57 3.0 3.0 0.00 0.00 0.00 80 1004.9
20260505124601 66 148 4.0 6.0 0.00 0.00 0.00 82 1005.0
20260505124057 66 113 5.0 7.0 0.00 0.00 0.00 82 1005.0
20260505123553 66 178 5.0 7.0 0.00 0.00 0.00 82 1004.8
20260505123050 66 137 7.0 13.0 0.00 0.00 0.00 82 1004.9
20260505122547 66 108 3.0 4.0 0.00 0.00 0.00 82 1004.8
20260505122044 66 123 6.0 8.0 0.00 0.00 0.00 83 1004.5
20260505121540 65 158 5.0 7.0 0.00 0.00 0.00 83 1004.6
20260505121037 65 106 1.0 2.0 0.00 0.00 0.00 83 1004.6
20260505120534 65 53 3.0 4.0 0.00 0.00 0.00 83 1004.5
20260505120029 65 57 3.0 4.0 0.00 0.00 0.00 83 1004.5
20260505115524 65 97 2.0 3.0 0.00 0.00 0.00 83 1004.7
20260505115022 65 51 3.0 7.0 0.00 0.00 0.00 83 1004.7
20260505114519 65 44 4.0 7.0 0.00 0.00 0.00 83 1004.5
20260505114015 65 22 2.0 3.0 0.00 0.00 0.00 83 1004.5
20260505113512 65 16 2.0 2.0 0.00 0.00 0.00 83 1004.2
20260505113009 65 71 4.0 6.0 0.00 0.00 0.00 83 1004.3
20260505112505 65 38 3.0 6.0 0.00 0.00 0.00 83 1004.5
20260505112003 66 55 1.0 2.0 0.00 0.00 0.00 83 1004.5
20260505111501 66 72 4.0 6.0 0.00 0.00 0.00 83 1004.5
20260505110958 66 66 1.0 2.0 0.00 0.00 0.00 82 1004.4
20260505110455 66 79 4.0 6.0 0.00 0.00 0.00 83 1004.2
20260505101927 65 110 5.0 6.0 0.00 0.00 0.00 84 1003.7
20260505101426 65 80 4.0 6.0 0.00 0.00 0.00 84 1003.6
20260505100922 65 35 2.0 6.0 0.00 0.00 0.00 84 1003.5
20260505100419 65 22 1.0 1.0 0.00 0.00 0.00 84 1003.3
20260505095915 65 72 2.0 3.0 0.00 0.00 0.00 83 1003.5
20260505095412 65 75 5.0 6.0 0.00 0.00 0.00 83 1003.3
20260505094908 65 64 3.0 4.0 0.00 0.00 0.00 83 1003.4
20260505094406 65 90 4.0 6.0 0.00 0.00 0.00 83 1003.4
20260505093901 65 116 2.0 3.0 0.00 0.00 0.00 82 1003.4
20260505093358 65 151 2.0 4.0 0.00 0.00 0.00 82 1003.2
20260505052707 70 320 1.0 1.0 0.00 0.00 0.00 71 1003.9
20260505052204 70 320 1.0 1.0 0.00 0.00 0.00 71 1003.9
20260505051701 70 327 2.0 2.0 0.00 0.00 0.00 70 1004.1
20260505051159 70 289 2.0 3.0 0.00 0.00 0.00 70 1004.1
20260505050657 70 62 1.0 2.0 0.00 0.00 0.00 69 1003.8
20260505050155 70 6 0.0 0.0 0.00 0.00 0.00 69 1003.8
20260505041630 70 175 3.0 4.0 0.00 0.00 0.00 67 1003.8
20260505041128 70 157 2.0 3.0 0.00 0.00 0.00 67 1003.9
20260505040624 70 37 0.0 0.0 0.00 0.00 0.00 66 1004.3
20260505040122 70 14 2.0 3.0 0.00 0.00 0.00 66 1004.1
20260505035618 70 2 1.0 1.0 0.00 0.00 0.00 66 1004.2
20260505035114 70 355 1.0 1.0 0.00 0.00 0.00 65 1004.0
20260505034611 70 146 4.0 4.0 0.00 0.00 0.00 65 1004.3
20260505034108 70 174 2.0 3.0 0.00 0.00 0.00 66 1004.3
20260505033604 71 12 2.0 2.0 0.00 0.00 0.00 66 1004.7
20260505033103 71 117 4.0 6.0 0.00 0.00 0.00 65 1004.5
20260505032601 71 62 2.0 4.0 0.00 0.00 0.00 63 1004.7
20260505032057 71 217 4.0 6.0 0.00 0.00 0.00 62 1004.7
20260505031554 71 109 2.0 2.0 0.00 0.00 0.00 63 1004.8
20260505031050 71 35 5.0 7.0 0.00 0.00 0.00 62 1004.9
20260505030548 71 128 2.0 3.0 0.00 0.00 0.00 62 1004.7
20260505030043 71 115 2.0 2.0 0.00 0.00 0.00 62 1004.9
20260505025539 72 153 1.0 2.0 0.00 0.00 0.00 61 1004.9
20260505025039 72 80 2.0 3.0 0.00 0.00 0.00 61 1005.1
20260505024535 72 167 3.0 4.0 0.00 0.00 0.00 61 1005.1
20260505024032 72 164 5.0 6.0 0.00 0.00 0.00 61 1005.0
20260505023529 72 124 1.0 2.0 0.00 0.00 0.00 61 1005.3
20260505023027 72 68 1.0 1.0 0.00 0.00 0.00 60 1005.4
20260505022524 72 162 3.0 3.0 0.00 0.00 0.00 60 1005.4
20260505022021 73 335 1.0 1.0 0.00 0.00 0.00 60 1005.0
20260505021518 73 151 2.0 2.0 0.00 0.00 0.00 60 1004.9
20260505021015 73 206 3.0 3.0 0.00 0.00 0.00 60 1004.7
20260505020514 73 7 0.0 1.0 0.00 0.00 0.00 60 1005.1
20260505020012 73 168 3.0 6.0 0.00 0.00 0.00 60 1005.0
20260505015509 73 128 0.0 1.0 0.00 0.00 0.00 61 1005.2
20260505015006 73 301 2.0 6.0 0.00 0.00 0.00 60 1005.0
20260505014503 73 256 3.0 4.0 0.00 0.00 0.00 60 1004.8
20260505014000 74 52 2.0 2.0 0.00 0.00 0.00 60 1004.9
20260505013457 74 68 2.0 3.0 0.00 0.00 0.00 60 1004.9
20260505012954 74 335 2.0 3.0 0.00 0.00 0.00 60 1004.9
20260505012452 74 36 2.0 3.0 0.00 0.00 0.00 60 1004.7
20260505011948 74 99 1.0 2.0 0.00 0.00 0.00 60 1004.8
20260505011444 74 9 0.0 0.0 0.00 0.00 0.00 60 1004.8
20260505010942 74 21 2.0 2.0 0.00 0.00 0.00 60 1004.8
20260505010437 75 352 1.0 1.0 0.00 0.00 0.00 59 1004.7
20260505005933 75 0 0.0 0.0 0.00 0.00 0.00 60 1004.7
20260505005430 75 144 2.0 2.0 0.00 0.00 0.00 59 1004.9
20260505004928 75 32 1.0 1.0 0.00 0.00 0.00 59 1004.8
20260505004424 75 185 2.0 2.0 0.00 0.00 0.00 58 1004.9
20260505003921 75 276 4.0 7.0 0.00 0.00 0.00 58 1004.8
20260505003419 75 293 5.0 7.0 0.00 0.00 0.00 58 1004.8
20260505002914 76 262 2.0 3.0 0.00 0.00 0.00 58 1004.9
20260505002411 76 271 8.0 11.0 0.00 0.00 0.00 57 1004.8
20260505001910 76 6 2.0 3.0 0.00 0.00 0.00 58 1004.8
20260505001407 76 284 4.0 6.0 0.00 0.00 0.00 57 1005.1
20260505000904 76 334 3.0 4.0 0.00 0.00 0.00 57 1005.2
20260505000402 76 338 3.0 4.0 0.00 0.00 0.00 57 1005.3
20260504235858 76 15 4.0 7.0 0.00 0.00 0.00 57 1005.2
20260504235355 77 18 1.0 1.0 0.00 0.00 0.00 58 1005.3
20260504234851 77 262 5.0 6.0 0.00 0.00 0.00 57 1005.3
20260504234349 77 309 2.0 2.0 0.00 0.00 0.00 57 1005.5
20260504233846 77 278 5.0 8.0 0.00 0.00 0.00 56 1005.3
20260504233341 77 321 1.0 2.0 0.00 0.00 0.00 57 1005.2
20260504232838 77 313 2.0 2.0 0.00 0.00 0.00 58 1005.3
20260504232335 77 7 1.0 1.0 0.00 0.00 0.00 56 1005.3
20260504231832 77 286 3.0 6.0 0.00 0.00 0.00 56 1005.1
20260504231329 77 273 4.0 4.0 0.00 0.00 0.00 56 1005.3
20260504230825 77 273 3.0 3.0 0.00 0.00 0.00 56 1005.4